Fasat-Charlie

operational
NORAD ID: 38011 Int'l Des: 2011-076 Owner: FACH Country: CL
LEOCIRCULARRETROGRADESSO

Fasat-Charlieについて

説明を読み込み中...

リアルタイム位置

3D地球を読み込み中...

次回通過

高度履歴

Altitude vs Time

uPlot chart will show altitude changes over time

軌道要素

1 38011U 11076E 26062.66524919 .00001199 00000-0 15668-3 0 9995
2 38011 97.8206 125.5346 0001585 93.5729 67.1394 14.82249773768746
Epoch: Mar 3, 2026 • Age: 36 hours

現在のステータス

高度 625.2 km
速度 7.55 km/s
衛星直下点 27.40°N, 133.59°E
打ち上げ日 Dec 17, 2011
運用期間 14.2 years
タイプ other

技術仕様

分類 Payload
質量 116.00 kg
乾燥質量 116.00 kg
総質量 116.00 kg
長さ 0.60 m
直径 1.00 m
スパン 1.00 m
形状 Box + Pan
製造者 ASTT
バスタイプ Myriade
フェーズステータス In Orbit
所有者/国 FACH/CL

大規模コンステレーション

Loading constellations...